FW6626 Weather Reports


Display with metric or nautical units.
time (UTC)temp
F
wind
direction
speed
MPH
gust
MPH
rain 1hr
in
rain 24hr
in
rain mn
in
humidity
%
barometer
mb
20260507094600 57 141 2.0 5.0 0.00 0.00 0.00 87 1016.9
20260507093056 58 155 1.0 5.0 0.00 0.00 0.00 87 1017.0
20260507091557 58 155 2.0 6.0 0.00 0.00 0.00 87 1017.1
20260507090051 58 159 2.0 5.0 0.00 0.00 0.00 87 1017.2
20260507084557 58 159 1.0 4.0 0.00 0.00 0.00 87 1017.4
20260507083053 58 160 1.0 5.0 0.00 0.00 0.00 87 1017.5
20260507081555 58 161 2.0 5.0 0.00 0.00 0.00 87 1017.6
20260507080056 58 161 3.0 6.0 0.00 0.00 0.00 86 1017.7
20260507074557 58 163 2.0 5.0 0.00 0.00 0.00 86 1017.6
20260507073102 58 163 2.0 5.0 0.00 0.00 0.00 86 1017.8
20260507071553 58 167 3.0 6.0 0.00 0.00 0.00 85 1017.8
20260507070057 59 212 1.0 4.0 0.00 0.00 0.00 85 1017.9
20260507064557 59 217 2.0 5.0 0.00 0.00 0.00 85 1017.8
20260507063100 59 290 1.0 2.0 0.00 0.00 0.00 85 1017.9
20260507061553 59 0 0.0 2.0 0.00 0.00 0.00 85 1017.9
20260507060056 59 0 0.0 2.0 0.00 0.00 0.00 85 1018.0
20260507054557 59 0 0.0 3.0 0.00 0.00 0.00 85 1018.1
20260507053116 59 290 0.0 2.0 0.00 0.00 0.00 84 1018.1
20260507051558 59 0 0.0 2.0 0.00 0.00 0.00 83 1018.0
20260507050058 60 0 0.0 2.0 0.00 0.00 0.00 82 1017.8
20260507044630 60 291 1.0 3.0 0.00 0.00 0.00 83 1017.9
20260507043053 60 294 0.0 2.0 0.00 0.00 0.00 82 1017.9
20260507041552 61 294 1.0 4.0 0.00 0.00 0.00 81 1017.9
20260507040050 61 291 2.0 7.0 0.00 0.00 0.00 81 1017.8
20260507034601 61 289 2.0 6.0 0.00 0.00 0.00 82 1017.7
20260507033105 61 288 1.0 5.0 0.00 0.00 0.00 83 1017.6
20260507031600 61 301 3.0 5.0 0.00 0.00 0.00 82 1017.4
20260507030108 62 286 2.0 8.0 0.00 0.00 0.00 82 1017.3
20260507024609 62 236 0.0 4.0 0.00 0.00 0.00 82 1017.0
20260507023051 62 245 2.0 6.0 0.00 0.00 0.00 82 1017.0
20260507021555 62 248 3.0 8.0 0.00 0.00 0.00 82 1016.8
20260507020059 63 256 4.0 9.0 0.00 0.00 0.00 82 1016.7
20260507014559 64 238 6.0 11.0 0.00 0.00 0.00 79 1016.6
20260507013100 66 261 6.0 10.0 0.00 0.00 0.00 75 1016.7
20260507011552 66 261 7.0 13.0 0.00 0.00 0.00 74 1016.7
20260507010049 67 263 6.0 14.0 0.00 0.00 0.00 73 1016.5
20260507004552 66 360 7.0 14.0 0.00 0.00 0.00 72 1016.5
20260507003051 66 259 6.0 15.0 0.00 0.00 0.00 75 1016.4
20260507001556 67 253 6.0 13.0 0.00 0.00 0.00 75 1016.4
20260507000053 67 260 6.0 12.0 0.00 0.00 0.00 73 1016.2
20260506234558 67 262 6.0 14.0 0.00 0.00 0.00 74 1016.2
20260506233058 66 252 7.0 14.0 0.00 0.00 0.00 75 1016.2
20260506231555 66 360 7.0 14.0 0.00 0.00 0.00 75 1016.4
20260506230052 66 260 9.0 15.0 0.00 0.00 0.00 75 1016.6
20260506224559 66 252 9.0 17.0 0.00 0.01 0.00 74 1016.6
20260506223050 66 223 9.0 17.0 0.00 0.01 0.00 74 1016.8
20260506221551 67 242 9.0 17.0 0.00 0.01 0.00 73 1016.9
20260506220054 67 232 8.0 17.0 0.00 0.01 0.00 73 1017.1
20260506214550 67 261 9.0 18.0 0.00 0.01 0.00 74 1017.3
20260506213053 66 279 10.0 16.0 0.00 0.01 0.00 74 1017.3
20260506211552 66 265 9.0 17.0 0.00 0.01 0.00 73 1017.5
20260506210054 66 273 10.0 17.0 0.00 0.01 0.00 73 1017.5
20260506204549 67 360 7.0 17.0 0.00 0.01 0.00 72 1017.7
20260506203051 66 360 7.0 15.0 0.00 0.01 0.00 73 1017.8
20260506201555 67 273 6.0 13.0 0.00 0.01 0.00 72 1017.8
20260506200054 66 279 6.0 16.0 0.00 0.01 0.00 72 1018.0
20260506194554 66 275 7.0 15.0 0.00 0.01 0.00 71 1018.2
20260506193051 67 277 7.0 15.0 0.00 0.01 0.00 70 1018.4
20260506191551 66 248 7.0 14.0 0.00 0.01 0.00 71 1018.4
20260506190058 67 310 6.0 14.0 0.00 0.01 0.00 69 1018.4
20260506184555 66 275 7.0 12.0 0.00 0.01 0.00 68 1018.4
20260506183057 66 260 5.0 11.0 0.00 0.01 0.00 67 1018.7
20260506181558 67 295 5.0 11.0 0.00 0.01 0.00 68 1018.6
20260506180051 66 281 5.0 13.0 0.00 0.01 0.00 70 1018.8
20260506174557 66 268 4.0 12.0 0.00 0.01 0.00 70 1018.9
20260506173122 65 292 5.0 10.0 0.00 0.01 0.00 70 1018.9
20260506171601 65 252 5.0 12.0 0.00 0.01 0.00 70 1018.9
20260506170055 65 250 5.0 10.0 0.00 0.01 0.00 69 1018.9
20260506164557 65 269 4.0 10.0 0.00 0.02 0.00 69 1018.9
20260506163104 66 236 3.0 8.0 0.00 0.02 0.00 69 1018.9
20260506161617 65 239 2.0 8.0 0.00 0.02 0.00 69 1018.9
20260506160049 63 302 2.0 7.0 0.00 0.02 0.00 72 1018.9
20260506154552 64 297 2.0 7.0 0.00 0.02 0.00 71 1018.9
20260506153057 68 78 1.0 4.0 0.00 0.02 0.00 66 1018.9
20260506151549 67 98 2.0 4.0 0.00 0.02 0.00 67 1018.9
20260506150056 65 108 3.0 6.0 0.00 0.02 0.00 69 1018.9
20260506144551 63 78 2.0 4.0 0.00 0.02 0.00 71 1018.8
20260506143052 62 74 2.0 5.0 0.00 0.02 0.00 73 1018.7
20260506141554 60 76 3.0 7.0 0.00 0.02 0.00 74 1018.5
20260506140054 59 74 3.0 5.0 0.00 0.02 0.00 76 1018.5
20260506134555 57 53 2.0 5.0 0.00 0.02 0.00 79 1018.4
20260506133055 55 44 3.0 5.0 0.00 0.02 0.00 80 1018.3
20260506131602 54 51 3.0 5.0 0.00 0.02 0.00 83 1018.2
20260506130131 53 49 2.0 4.0 0.00 0.02 0.00 83 1018.1
20260506124559 54 49 3.0 5.0 0.00 0.02 0.00 83 1017.9
20260506123053 54 55 4.0 6.0 0.00 0.02 0.00 83 1017.9
20260506121556 53 49 2.0 5.0 0.00 0.02 0.00 83 1017.7
20260506120056 54 35 2.0 4.0 0.00 0.02 0.00 83 1017.9
20260506114557 54 30 2.0 4.0 0.00 0.03 0.00 83 1017.8
20260506113058 53 31 2.0 4.0 0.00 0.03 0.00 82 1017.8
20260506111607 54 40 2.0 5.0 0.00 0.03 0.00 83 1017.7
20260506110111 54 30 2.0 4.0 0.00 0.03 0.00 83 1017.8
20260506104600 54 38 2.0 5.0 0.00 0.03 0.00 82 1017.7
20260506103110 54 14 2.0 4.0 0.00 0.03 0.00 83 1017.7
20260506101608 54 17 3.0 5.0 0.00 0.03 0.00 82 1017.5
20260506100121 55 5 2.0 4.0 0.00 0.03 0.00 82 1017.5